Year,Month,Day,Hour,Minute,Value (Times are PST for temperature in C)
2009,04,24,00,00,9.60
2009,04,24,00,01,9.60
2009,04,24,00,02,9.60
2009,04,24,00,03,9.60
2009,04,24,00,04,9.60
2009,04,24,00,05,9.60
2009,04,24,00,06,9.50
2009,04,24,00,07,9.50
2009,04,24,00,08,9.40
2009,04,24,00,09,9.40
2009,04,24,00,10,9.40
2009,04,24,00,11,9.30
2009,04,24,00,12,9.30
2009,04,24,00,13,9.30
2009,04,24,00,14,9.30
2009,04,24,00,15,9.20
2009,04,24,00,16,9.20
2009,04,24,00,17,9.20
2009,04,24,00,18,9.20
2009,04,24,00,19,9.10
2009,04,24,00,20,9.10
2009,04,24,00,21,9.10
2009,04,24,00,22,9.10
2009,04,24,00,23,9.10
2009,04,24,00,24,9.10
2009,04,24,00,25,9.00
2009,04,24,00,26,9.00
2009,04,24,00,27,8.90
2009,04,24,00,28,8.90
2009,04,24,00,29,8.90
2009,04,24,00,30,8.90
2009,04,24,00,31,8.90
2009,04,24,00,32,8.90
2009,04,24,00,33,8.90
2009,04,24,00,34,8.90
2009,04,24,00,35,8.90
2009,04,24,00,36,8.90
2009,04,24,00,37,8.90
2009,04,24,00,38,8.90
2009,04,24,00,39,8.90
2009,04,24,00,40,8.90
2009,04,24,00,41,8.90
2009,04,24,00,42,8.90
2009,04,24,00,43,8.90
2009,04,24,00,44,8.90
2009,04,24,00,45,8.90
2009,04,24,00,46,8.90
2009,04,24,00,47,8.90
2009,04,24,00,48,8.90
2009,04,24,00,49,8.90
2009,04,24,00,50,8.90
2009,04,24,00,51,8.80
2009,04,24,00,52,8.80
2009,04,24,00,53,8.80
2009,04,24,00,54,8.70
2009,04,24,00,55,8.70
2009,04,24,00,56,8.70
2009,04,24,00,57,8.60
2009,04,24,00,58,8.60
2009,04,24,00,59,8.60
2009,04,24,01,00,8.60
2009,04,24,01,01,8.60
2009,04,24,01,02,8.60
2009,04,24,01,03,8.60
2009,04,24,01,04,8.60
2009,04,24,01,05,8.60
2009,04,24,01,06,8.60
2009,04,24,01,07,8.60
2009,04,24,01,08,8.60
2009,04,24,01,09,8.60
2009,04,24,01,10,8.60
2009,04,24,01,11,8.60
2009,04,24,01,12,8.60
2009,04,24,01,13,8.50
2009,04,24,01,14,8.50
2009,04,24,01,15,8.40
2009,04,24,01,16,8.40
2009,04,24,01,17,8.40
2009,04,24,01,18,8.40
2009,04,24,01,19,8.30
2009,04,24,01,20,8.30
2009,04,24,01,21,8.30
2009,04,24,01,22,8.30
2009,04,24,01,23,8.30
2009,04,24,01,24,8.30
2009,04,24,01,25,8.30
2009,04,24,01,26,8.30
2009,04,24,01,27,8.20
2009,04,24,01,28,8.20
2009,04,24,01,29,8.20
2009,04,24,01,30,8.20
2009,04,24,01,31,8.20
2009,04,24,01,32,8.20
2009,04,24,01,33,8.20
2009,04,24,01,34,8.20
2009,04,24,01,35,8.20
2009,04,24,01,36,8.20
2009,04,24,01,37,8.30
2009,04,24,01,38,8.30
2009,04,24,01,39,8.30
2009,04,24,01,40,8.30
2009,04,24,01,41,8.30
2009,04,24,01,42,8.30
2009,04,24,01,43,8.30
2009,04,24,01,44,8.30
2009,04,24,01,45,8.30
2009,04,24,01,46,8.30
2009,04,24,01,47,8.30
2009,04,24,01,48,8.30
2009,04,24,01,49,8.30
2009,04,24,01,50,8.20
2009,04,24,01,51,8.30
2009,04,24,01,52,8.30
2009,04,24,01,53,8.30
2009,04,24,01,54,8.30
2009,04,24,01,55,8.30
2009,04,24,01,56,8.30
2009,04,24,01,57,8.30
2009,04,24,01,58,8.30
2009,04,24,01,59,8.30
2009,04,24,02,00,8.30
2009,04,24,02,01,8.30
2009,04,24,02,02,8.30
2009,04,24,02,03,8.30
2009,04,24,02,04,8.30
2009,04,24,02,05,8.30
2009,04,24,02,06,8.30
2009,04,24,02,07,8.30
2009,04,24,02,08,8.30
2009,04,24,02,09,8.30
2009,04,24,02,10,8.30
2009,04,24,02,11,8.30
2009,04,24,02,12,8.20
2009,04,24,02,13,8.20
2009,04,24,02,14,8.20
2009,04,24,02,15,8.10
2009,04,24,02,16,8.00
2009,04,24,02,17,7.90
2009,04,24,02,18,7.80
2009,04,24,02,19,7.60
2009,04,24,02,20,7.50
2009,04,24,02,21,7.30
2009,04,24,02,22,7.20
2009,04,24,02,23,7.20
2009,04,24,02,24,7.10
2009,04,24,02,25,6.90
2009,04,24,02,26,6.90
2009,04,24,02,27,6.80
2009,04,24,02,28,6.70
2009,04,24,02,29,6.70
2009,04,24,02,30,6.60
2009,04,24,02,31,6.60
2009,04,24,02,32,6.50
2009,04,24,02,33,6.50
2009,04,24,02,34,6.40
2009,04,24,02,35,6.40
2009,04,24,02,36,6.40
2009,04,24,02,37,6.40
2009,04,24,02,38,6.40
2009,04,24,02,39,6.40
2009,04,24,02,40,6.30
2009,04,24,02,41,6.30
2009,04,24,02,42,6.40
2009,04,24,02,43,6.50
2009,04,24,02,44,6.70
2009,04,24,02,45,6.80
2009,04,24,02,46,7.00
2009,04,24,02,47,7.20
2009,04,24,02,48,7.20
2009,04,24,02,49,7.20
2009,04,24,02,50,7.30
2009,04,24,02,51,7.30
2009,04,24,02,52,7.40
2009,04,24,02,53,7.40
2009,04,24,02,54,7.40
2009,04,24,02,55,7.40
2009,04,24,02,56,7.40
2009,04,24,02,57,7.40
2009,04,24,02,58,7.40
2009,04,24,02,59,7.40
2009,04,24,03,00,7.40
2009,04,24,03,01,7.40
2009,04,24,03,02,7.40
2009,04,24,03,03,7.40
2009,04,24,03,04,7.40
2009,04,24,03,05,7.30
2009,04,24,03,06,7.30
2009,04,24,03,07,7.20
2009,04,24,03,08,7.10
2009,04,24,03,09,7.00
2009,04,24,03,10,6.80
2009,04,24,03,11,6.70
2009,04,24,03,12,6.60
2009,04,24,03,13,6.50
2009,04,24,03,14,6.40
2009,04,24,03,15,6.30
2009,04,24,03,16,6.20
2009,04,24,03,17,6.20
2009,04,24,03,18,6.20
2009,04,24,03,19,6.20
2009,04,24,03,20,6.30
2009,04,24,03,21,6.50
2009,04,24,03,22,6.60
2009,04,24,03,23,6.70
2009,04,24,03,24,6.80
2009,04,24,03,25,7.00
2009,04,24,03,26,7.00
2009,04,24,03,27,7.10
2009,04,24,03,28,7.10
2009,04,24,03,29,7.20
2009,04,24,03,30,7.20
2009,04,24,03,31,7.20
2009,04,24,03,32,7.20
2009,04,24,03,33,7.20
2009,04,24,03,34,7.20
2009,04,24,03,35,7.20
2009,04,24,03,36,7.20
2009,04,24,03,37,7.20
2009,04,24,03,38,7.20
2009,04,24,03,39,7.10
2009,04,24,03,40,7.20
2009,04,24,03,41,7.10
2009,04,24,03,42,7.20
2009,04,24,03,43,7.20
2009,04,24,03,44,7.20
2009,04,24,03,45,7.20
2009,04,24,03,46,7.20
2009,04,24,03,47,7.20
2009,04,24,03,48,7.20
2009,04,24,03,49,7.20
2009,04,24,03,50,7.10
2009,04,24,03,51,7.10
2009,04,24,03,52,7.10
2009,04,24,03,53,7.10
2009,04,24,03,54,7.10
2009,04,24,03,55,7.10
2009,04,24,03,56,7.00
2009,04,24,03,57,7.00
2009,04,24,03,58,7.00
2009,04,24,03,59,7.00
2009,04,24,04,00,7.00
2009,04,24,04,01,7.00
2009,04,24,04,02,7.00
2009,04,24,04,03,7.00
2009,04,24,04,04,7.00
2009,04,24,04,05,7.00
2009,04,24,04,06,7.00
2009,04,24,04,07,7.00
2009,04,24,04,08,7.00
2009,04,24,04,09,7.00
2009,04,24,04,10,7.00
2009,04,24,04,11,7.00
2009,04,24,04,12,7.00
2009,04,24,04,13,7.00
2009,04,24,04,14,7.00
2009,04,24,04,15,6.90
2009,04,24,04,16,6.90
2009,04,24,04,17,6.90
2009,04,24,04,18,6.80
2009,04,24,04,19,6.80
2009,04,24,04,20,6.80
2009,04,24,04,21,6.70
2009,04,24,04,22,6.60
2009,04,24,04,23,6.60
2009,04,24,04,24,6.50
2009,04,24,04,25,6.30
2009,04,24,04,26,6.10
2009,04,24,04,27,6.00
2009,04,24,04,28,6.00
2009,04,24,04,29,5.90
2009,04,24,04,30,5.80
2009,04,24,04,31,5.70
2009,04,24,04,32,5.60
2009,04,24,04,33,5.60
2009,04,24,04,34,5.50
2009,04,24,04,35,5.40
2009,04,24,04,36,5.40
2009,04,24,04,37,5.40
2009,04,24,04,38,5.30
2009,04,24,04,39,5.30
2009,04,24,04,40,5.40
2009,04,24,04,41,5.40
2009,04,24,04,42,5.50
2009,04,24,04,43,5.70
2009,04,24,04,44,5.80
2009,04,24,04,45,6.00
2009,04,24,04,46,6.10
2009,04,24,04,47,6.20
2009,04,24,04,48,6.30
2009,04,24,04,49,6.30
2009,04,24,04,50,6.30
2009,04,24,04,51,6.30
2009,04,24,04,52,6.30
2009,04,24,04,53,6.30
2009,04,24,04,54,6.30
2009,04,24,04,55,6.20
2009,04,24,04,56,6.20
2009,04,24,04,57,6.10
2009,04,24,04,58,6.00
2009,04,24,04,59,5.90
2009,04,24,05,00,5.80
2009,04,24,05,01,5.70
2009,04,24,05,02,5.60
2009,04,24,05,03,5.40
2009,04,24,05,04,5.30
2009,04,24,05,05,5.20
2009,04,24,05,06,5.20
2009,04,24,05,07,5.10
2009,04,24,05,08,5.10
2009,04,24,05,09,5.10
2009,04,24,05,10,5.00
2009,04,24,05,11,5.00
2009,04,24,05,12,5.00
2009,04,24,05,13,5.00
2009,04,24,05,14,5.00
2009,04,24,05,15,5.00
2009,04,24,05,16,5.10
2009,04,24,05,17,5.10
2009,04,24,05,18,5.20
2009,04,24,05,19,5.20
2009,04,24,05,20,5.30
2009,04,24,05,21,5.30
2009,04,24,05,22,5.40
2009,04,24,05,23,5.40
2009,04,24,05,24,5.40
2009,04,24,05,25,5.40
2009,04,24,05,26,5.40
2009,04,24,05,27,5.40
2009,04,24,05,28,5.30
2009,04,24,05,29,5.30
2009,04,24,05,30,5.20
2009,04,24,05,31,5.10
2009,04,24,05,32,5.10
2009,04,24,05,33,5.00
2009,04,24,05,34,4.90
2009,04,24,05,35,4.80
2009,04,24,05,36,4.80
2009,04,24,05,37,4.80
2009,04,24,05,38,4.80
2009,04,24,05,39,4.80
2009,04,24,05,40,4.70
2009,04,24,05,41,4.70
2009,04,24,05,42,4.60
2009,04,24,05,43,4.50
2009,04,24,05,44,4.50
2009,04,24,05,45,4.50
2009,04,24,05,46,4.60
2009,04,24,05,47,4.60
2009,04,24,05,48,4.60
2009,04,24,05,49,4.50
2009,04,24,05,50,4.50
2009,04,24,05,51,4.50
2009,04,24,05,52,4.50
2009,04,24,05,53,4.40
2009,04,24,05,54,4.40
2009,04,24,05,55,4.40
2009,04,24,05,56,4.40
2009,04,24,05,57,4.40
2009,04,24,05,58,4.50
2009,04,24,05,59,4.50
2009,04,24,06,00,4.50
2009,04,24,06,01,4.60
2009,04,24,06,02,4.60
2009,04,24,06,03,4.60
2009,04,24,06,04,4.60
2009,04,24,06,05,4.60
2009,04,24,06,06,4.60
2009,04,24,06,07,4.60
2009,04,24,06,08,4.40
2009,04,24,06,09,4.30
2009,04,24,06,10,4.20
2009,04,24,06,11,4.20
2009,04,24,06,12,4.10
2009,04,24,06,13,4.10
2009,04,24,06,14,4.10
2009,04,24,06,15,4.00
2009,04,24,06,16,4.00
2009,04,24,06,17,3.90
2009,04,24,06,18,3.90
2009,04,24,06,19,3.90
2009,04,24,06,20,3.90
2009,04,24,06,21,3.90
2009,04,24,06,22,3.90
2009,04,24,06,23,3.90
2009,04,24,06,24,3.90
2009,04,24,06,25,3.90
2009,04,24,06,26,3.90
2009,04,24,06,27,3.90
2009,04,24,06,28,3.80
2009,04,24,06,29,3.80
2009,04,24,06,30,3.80
2009,04,24,06,31,3.80
2009,04,24,06,32,3.80
2009,04,24,06,33,3.90
2009,04,24,06,34,3.90
2009,04,24,06,35,3.90
2009,04,24,06,36,3.90
2009,04,24,06,37,4.00
2009,04,24,06,38,4.00
2009,04,24,06,39,4.10
2009,04,24,06,40,4.20
2009,04,24,06,41,4.20
2009,04,24,06,42,4.30
2009,04,24,06,43,4.40
2009,04,24,06,44,4.40
2009,04,24,06,45,4.50
2009,04,24,06,46,4.60
2009,04,24,06,47,4.60
2009,04,24,06,48,4.70
2009,04,24,06,49,4.70
2009,04,24,06,50,4.80
2009,04,24,06,51,4.70
2009,04,24,06,52,4.70
2009,04,24,06,53,4.60
2009,04,24,06,54,4.60
2009,04,24,06,55,4.50
2009,04,24,06,56,4.40
2009,04,24,06,57,4.40
2009,04,24,06,58,4.40
2009,04,24,06,59,4.40
2009,04,24,07,00,4.40
2009,04,24,07,01,4.40
2009,04,24,07,02,4.40
2009,04,24,07,03,4.40
2009,04,24,07,04,4.40
2009,04,24,07,05,4.60
2009,04,24,07,06,4.70
2009,04,24,07,07,4.80
2009,04,24,07,08,4.90
2009,04,24,07,09,5.00
2009,04,24,07,10,5.10
2009,04,24,07,11,5.30
2009,04,24,07,12,5.30
2009,04,24,07,13,5.40
2009,04,24,07,14,5.60
2009,04,24,07,15,5.70
2009,04,24,07,16,5.80
2009,04,24,07,17,6.00
2009,04,24,07,18,6.10
2009,04,24,07,19,6.20
2009,04,24,07,20,6.20
2009,04,24,07,21,6.20
2009,04,24,07,22,6.20
2009,04,24,07,23,6.20
2009,04,24,07,24,6.30
2009,04,24,07,25,6.30
2009,04,24,07,26,6.30
2009,04,24,07,27,6.30
2009,04,24,07,28,6.50
2009,04,24,07,29,6.60
2009,04,24,07,30,6.60
2009,04,24,07,31,6.60
2009,04,24,07,32,6.80
2009,04,24,07,33,6.90
2009,04,24,07,34,7.00
2009,04,24,07,35,7.00
2009,04,24,07,36,7.10
2009,04,24,07,37,7.10
2009,04,24,07,38,7.20
2009,04,24,07,39,7.20
2009,04,24,07,40,7.20
2009,04,24,07,41,7.30
2009,04,24,07,42,7.60
2009,04,24,07,43,7.70
2009,04,24,07,44,7.70
2009,04,24,07,45,7.80
2009,04,24,07,46,7.90
2009,04,24,07,47,8.00
2009,04,24,07,48,8.10
2009,04,24,07,49,8.20
2009,04,24,07,50,8.20
2009,04,24,07,51,8.50
2009,04,24,07,52,8.70
2009,04,24,07,53,8.80
2009,04,24,07,54,8.90
2009,04,24,07,55,9.00
2009,04,24,07,56,9.20
2009,04,24,07,57,9.30
2009,04,24,07,58,9.40
2009,04,24,07,59,9.50
2009,04,24,08,00,9.50
2009,04,24,08,01,9.50
2009,04,24,08,02,9.30
2009,04,24,08,03,9.30
2009,04,24,08,04,9.10
2009,04,24,08,05,8.90
2009,04,24,08,06,8.70
2009,04,24,08,07,8.60
2009,04,24,08,08,8.60
2009,04,24,08,09,8.40
2009,04,24,08,10,8.20
2009,04,24,08,11,8.10
2009,04,24,08,12,8.10
2009,04,24,08,13,8.00
2009,04,24,08,14,7.90
2009,04,24,08,15,7.90
2009,04,24,08,16,7.80
2009,04,24,08,17,7.80
2009,04,24,08,18,7.80
2009,04,24,08,19,7.80
2009,04,24,08,20,7.70
2009,04,24,08,21,7.70
2009,04,24,08,22,7.70
2009,04,24,08,23,7.70
2009,04,24,08,24,7.70
2009,04,24,08,25,7.60
2009,04,24,08,26,7.60
2009,04,24,08,27,7.60
2009,04,24,08,28,7.50
2009,04,24,08,29,7.40
2009,04,24,08,30,7.40
2009,04,24,08,31,7.40
2009,04,24,08,32,7.40
2009,04,24,08,33,7.40
2009,04,24,08,34,7.40
2009,04,24,08,35,7.40
2009,04,24,08,36,7.40
2009,04,24,08,37,7.50
2009,04,24,08,38,7.60
2009,04,24,08,39,7.60
2009,04,24,08,40,7.60
2009,04,24,08,41,7.50
2009,04,24,08,42,7.40
2009,04,24,08,43,7.40
2009,04,24,08,44,7.40
2009,04,24,08,45,7.40
2009,04,24,08,46,7.30
2009,04,24,08,47,7.40
2009,04,24,08,48,7.40
2009,04,24,08,49,7.40
2009,04,24,08,50,7.50
2009,04,24,08,51,7.60
2009,04,24,08,52,7.60
2009,04,24,08,53,7.50
2009,04,24,08,54,7.50
2009,04,24,08,55,7.50
2009,04,24,08,56,7.50
2009,04,24,08,57,7.60
2009,04,24,08,58,7.60
2009,04,24,08,59,7.60
2009,04,24,09,00,7.70
2009,04,24,09,01,7.70
2009,04,24,09,02,7.70
2009,04,24,09,03,7.80
2009,04,24,09,04,7.80
2009,04,24,09,05,7.80
2009,04,24,09,06,7.90
2009,04,24,09,07,7.90
2009,04,24,09,08,7.80
2009,04,24,09,09,7.80
2009,04,24,09,10,7.90
2009,04,24,09,11,7.90
2009,04,24,09,12,7.80
2009,04,24,09,13,7.80
2009,04,24,09,14,7.70
2009,04,24,09,15,7.70
2009,04,24,09,16,7.70
2009,04,24,09,17,7.60
2009,04,24,09,18,7.70
2009,04,24,09,19,7.80
2009,04,24,09,20,7.80
2009,04,24,09,21,7.80
2009,04,24,09,22,7.70
2009,04,24,09,23,7.70
2009,04,24,09,24,7.70
2009,04,24,09,25,7.80
2009,04,24,09,26,7.80
2009,04,24,09,27,7.80
2009,04,24,09,28,7.80
2009,04,24,09,29,7.80
2009,04,24,09,30,7.80
2009,04,24,09,31,7.70
2009,04,24,09,32,7.70
2009,04,24,09,33,7.70
2009,04,24,09,34,7.70
2009,04,24,09,35,7.70
2009,04,24,09,36,7.70
2009,04,24,09,37,7.60
2009,04,24,09,38,7.60
2009,04,24,09,39,7.60
2009,04,24,09,40,7.60
2009,04,24,09,41,7.60
2009,04,24,09,42,7.60
2009,04,24,09,43,7.70
2009,04,24,09,44,7.70
2009,04,24,09,45,7.70
2009,04,24,09,46,7.70
2009,04,24,09,47,7.60
2009,04,24,09,48,7.70
2009,04,24,09,49,7.70
2009,04,24,09,50,7.70
2009,04,24,09,51,7.70
2009,04,24,09,52,7.70
2009,04,24,09,53,7.60
2009,04,24,09,54,7.60
2009,04,24,09,55,7.50
2009,04,24,09,56,7.50
2009,04,24,09,57,7.50
2009,04,24,09,58,7.60
2009,04,24,09,59,7.60
2009,04,24,10,00,7.60
2009,04,24,10,01,7.50
2009,04,24,10,02,7.40
2009,04,24,10,03,7.40
2009,04,24,10,04,7.40
2009,04,24,10,05,7.30
2009,04,24,10,06,7.30
2009,04,24,10,07,7.30
2009,04,24,10,08,7.40
2009,04,24,10,09,7.40
2009,04,24,10,10,7.40
2009,04,24,10,11,7.70
2009,04,24,10,12,7.70
2009,04,24,10,13,7.80
2009,04,24,10,14,7.80
2009,04,24,10,15,7.80
2009,04,24,10,16,7.70
2009,04,24,10,17,7.70
2009,04,24,10,18,7.60
2009,04,24,10,19,7.70
2009,04,24,10,20,7.70
2009,04,24,10,21,7.70
2009,04,24,10,22,7.70
2009,04,24,10,23,7.60
2009,04,24,10,24,7.60
2009,04,24,10,25,7.70
2009,04,24,10,26,7.60
2009,04,24,10,27,7.60
2009,04,24,10,28,7.70
2009,04,24,10,29,7.70
2009,04,24,10,30,7.70
2009,04,24,10,31,7.70
2009,04,24,10,32,7.80
2009,04,24,10,33,7.90
2009,04,24,10,34,8.00
2009,04,24,10,35,7.90
2009,04,24,10,36,7.90
2009,04,24,10,37,7.90
2009,04,24,10,38,7.90
2009,04,24,10,39,7.80
2009,04,24,10,40,7.80
2009,04,24,10,41,7.70
2009,04,24,10,42,7.70
2009,04,24,10,43,7.80
2009,04,24,10,44,7.80
2009,04,24,10,45,7.70
2009,04,24,10,46,7.70
2009,04,24,10,47,7.70
2009,04,24,10,48,7.60
2009,04,24,10,49,7.40
2009,04,24,10,50,7.40
2009,04,24,10,51,7.50
2009,04,24,10,52,7.50
2009,04,24,10,53,7.60
2009,04,24,10,54,7.70
2009,04,24,10,55,7.70
2009,04,24,10,56,7.60
2009,04,24,10,57,7.60
2009,04,24,10,58,7.60
2009,04,24,10,59,7.60
2009,04,24,11,00,7.70
2009,04,24,11,01,7.70
2009,04,24,11,02,7.60
2009,04,24,11,03,7.60
2009,04,24,11,04,7.60
2009,04,24,11,05,7.60
2009,04,24,11,06,7.60
2009,04,24,11,07,7.50
2009,04,24,11,08,7.50
2009,04,24,11,09,7.50
2009,04,24,11,10,7.50
2009,04,24,11,11,7.50
2009,04,24,11,12,7.60
2009,04,24,11,13,7.60
2009,04,24,11,14,7.70
2009,04,24,11,15,7.60
2009,04,24,11,16,7.60
2009,04,24,11,17,7.70
2009,04,24,11,18,7.80
2009,04,24,11,19,7.90
2009,04,24,11,20,8.00
2009,04,24,11,21,8.00
2009,04,24,11,22,8.00
2009,04,24,11,23,8.10
2009,04,24,11,24,8.20
2009,04,24,11,25,8.20
2009,04,24,11,26,8.20
2009,04,24,11,27,8.10
2009,04,24,11,28,8.10
2009,04,24,11,29,8.00
2009,04,24,11,30,8.00
2009,04,24,11,31,8.10
2009,04,24,11,32,8.10
2009,04,24,11,33,8.10
2009,04,24,11,34,8.10
2009,04,24,11,35,8.00
2009,04,24,11,36,8.00
2009,04,24,11,37,8.10
2009,04,24,11,38,8.10
2009,04,24,11,39,8.10
2009,04,24,11,40,8.10
2009,04,24,11,41,8.10
2009,04,24,11,42,8.20
2009,04,24,11,43,8.20
2009,04,24,11,44,8.20
2009,04,24,11,45,8.20
2009,04,24,11,46,8.10
2009,04,24,11,47,8.00
2009,04,24,11,48,8.00
2009,04,24,11,49,8.00
2009,04,24,11,50,8.00
2009,04,24,11,51,7.90
2009,04,24,11,52,7.90
2009,04,24,11,53,7.90
2009,04,24,11,54,7.80
2009,04,24,11,55,7.70
2009,04,24,11,56,7.70
2009,04,24,11,57,7.70
2009,04,24,11,58,7.80
2009,04,24,11,59,7.80
2009,04,24,12,00,7.80
2009,04,24,12,01,7.90
2009,04,24,12,02,8.00
2009,04,24,12,03,8.00
2009,04,24,12,04,8.00
2009,04,24,12,05,8.10
2009,04,24,12,06,8.10
2009,04,24,12,07,8.10
2009,04,24,12,08,8.10
2009,04,24,12,09,8.20
2009,04,24,12,10,8.20
2009,04,24,12,11,8.20
2009,04,24,12,12,8.20
2009,04,24,12,13,8.10
2009,04,24,12,14,8.00
2009,04,24,12,15,8.00
2009,04,24,12,16,8.00
2009,04,24,12,17,7.90
2009,04,24,12,18,7.90
2009,04,24,12,19,7.80
2009,04,24,12,20,7.80
2009,04,24,12,21,7.80
2009,04,24,12,22,7.80
2009,04,24,12,23,7.70
2009,04,24,12,24,7.70
2009,04,24,12,25,7.70
2009,04,24,12,26,7.70
2009,04,24,12,27,7.70
2009,04,24,12,28,7.60
2009,04,24,12,29,7.60
2009,04,24,12,30,7.70
2009,04,24,12,31,7.70
2009,04,24,12,32,7.80
2009,04,24,12,33,7.80
2009,04,24,12,34,7.80
2009,04,24,12,35,7.80
2009,04,24,12,36,7.80
2009,04,24,12,37,7.80
2009,04,24,12,38,7.80
2009,04,24,12,39,7.80
2009,04,24,12,40,7.80
2009,04,24,12,41,7.80
2009,04,24,12,42,7.80
2009,04,24,12,43,7.80
2009,04,24,12,44,7.80
2009,04,24,12,45,7.80
2009,04,24,12,46,7.90
2009,04,24,12,47,7.90
2009,04,24,12,48,7.90
2009,04,24,12,49,7.90
2009,04,24,12,50,8.00
2009,04,24,12,51,8.00
2009,04,24,12,52,8.10
2009,04,24,12,53,8.00
2009,04,24,12,54,8.00
2009,04,24,12,55,7.90
2009,04,24,12,56,7.90
2009,04,24,12,57,7.90
2009,04,24,12,58,7.90
2009,04,24,12,59,8.00
2009,04,24,13,00,8.10
2009,04,24,13,01,8.10
2009,04,24,13,02,8.00
2009,04,24,13,03,8.00
2009,04,24,13,04,7.90
2009,04,24,13,05,8.00
2009,04,24,13,06,8.10
2009,04,24,13,07,8.10
2009,04,24,13,08,8.30
2009,04,24,13,09,8.30
2009,04,24,13,10,8.40
2009,04,24,13,11,8.40
2009,04,24,13,12,8.30
2009,04,24,13,13,8.30
2009,04,24,13,14,8.20
2009,04,24,13,15,8.20
2009,04,24,13,16,8.20
2009,04,24,13,17,8.20
2009,04,24,13,18,8.30
2009,04,24,13,19,8.40
2009,04,24,13,20,8.40
2009,04,24,13,21,8.40
2009,04,24,13,22,8.30
2009,04,24,13,23,8.30
2009,04,24,13,24,8.30
2009,04,24,13,25,8.40
2009,04,24,13,26,8.40
2009,04,24,13,27,8.40
2009,04,24,13,28,8.40
2009,04,24,13,29,8.30
2009,04,24,13,30,8.30
2009,04,24,13,31,8.30
2009,04,24,13,32,8.40
2009,04,24,13,33,8.40
2009,04,24,13,34,8.40
2009,04,24,13,35,8.40
2009,04,24,13,36,8.40
2009,04,24,13,37,8.40
2009,04,24,13,38,8.40
2009,04,24,13,39,8.40
2009,04,24,13,40,8.40
2009,04,24,13,41,8.40
2009,04,24,13,42,8.40
2009,04,24,13,43,8.50
2009,04,24,13,44,8.40
2009,04,24,13,45,8.40
2009,04,24,13,46,8.50
2009,04,24,13,47,8.50
2009,04,24,13,48,8.60
2009,04,24,13,49,8.70
2009,04,24,13,50,8.70
2009,04,24,13,51,8.80
2009,04,24,13,52,8.80
2009,04,24,13,53,8.80
2009,04,24,13,54,8.90
2009,04,24,13,55,8.90
2009,04,24,13,56,8.80
2009,04,24,13,57,8.70
2009,04,24,13,58,8.60
2009,04,24,13,59,8.60
2009,04,24,14,00,8.60
2009,04,24,14,01,8.50
2009,04,24,14,02,8.50
2009,04,24,14,03,8.50
2009,04,24,14,04,8.50
2009,04,24,14,05,8.50
2009,04,24,14,06,8.60
2009,04,24,14,07,8.60
2009,04,24,14,08,8.70
2009,04,24,14,09,8.70
2009,04,24,14,10,8.70
2009,04,24,14,11,8.70
2009,04,24,14,12,8.80
2009,04,24,14,13,8.80
2009,04,24,14,14,8.70
2009,04,24,14,15,8.80
2009,04,24,14,16,8.80
2009,04,24,14,17,8.80
2009,04,24,14,18,8.90
2009,04,24,14,19,9.00
2009,04,24,14,20,9.00
2009,04,24,14,21,8.90
2009,04,24,14,22,8.90
2009,04,24,14,23,8.90
2009,04,24,14,24,8.90
2009,04,24,14,25,8.90
2009,04,24,14,26,9.00
2009,04,24,14,27,9.10
2009,04,24,14,28,9.00
2009,04,24,14,29,9.00
2009,04,24,14,30,9.00
2009,04,24,14,31,8.90
2009,04,24,14,32,8.90
2009,04,24,14,33,8.90
2009,04,24,14,34,8.90
2009,04,24,14,35,8.90
2009,04,24,14,36,8.90
2009,04,24,14,37,9.00
2009,04,24,14,38,9.10
2009,04,24,14,39,9.20
2009,04,24,14,40,9.30
2009,04,24,14,41,9.30
2009,04,24,14,42,9.40
2009,04,24,14,43,9.50
2009,04,24,14,44,9.60
2009,04,24,14,45,9.60
2009,04,24,14,46,9.60
2009,04,24,14,47,9.50
2009,04,24,14,48,9.50
2009,04,24,14,49,9.50
2009,04,24,14,50,9.50
2009,04,24,14,51,9.50
2009,04,24,14,52,9.40
2009,04,24,14,53,9.40
2009,04,24,14,54,9.50
2009,04,24,14,55,9.60
2009,04,24,14,56,9.70
2009,04,24,14,57,9.70
2009,04,24,14,58,9.80
2009,04,24,14,59,9.80
2009,04,24,15,00,9.80
2009,04,24,15,01,9.80
2009,04,24,15,02,9.80
2009,04,24,15,03,9.90
2009,04,24,15,04,9.90
2009,04,24,15,05,10.00
2009,04,24,15,06,10.10
2009,04,24,15,07,10.20
2009,04,24,15,08,10.30
2009,04,24,15,09,10.30
2009,04,24,15,10,10.50
2009,04,24,15,11,10.70
2009,04,24,15,12,10.80
2009,04,24,15,13,10.80
2009,04,24,15,14,10.90
2009,04,24,15,15,11.00
2009,04,24,15,16,11.10
2009,04,24,15,17,11.10
2009,04,24,15,18,11.10
2009,04,24,15,19,11.10
2009,04,24,15,20,11.10
2009,04,24,15,21,11.00
2009,04,24,15,22,10.80
2009,04,24,15,23,10.70
2009,04,24,15,24,10.50
2009,04,24,15,25,10.40
2009,04,24,15,26,10.20
2009,04,24,15,27,10.20
2009,04,24,15,28,10.10
2009,04,24,15,29,10.00
2009,04,24,15,30,10.10
2009,04,24,15,31,10.10
2009,04,24,15,32,10.00
2009,04,24,15,33,10.00
2009,04,24,15,34,9.90
2009,04,24,15,35,9.80
2009,04,24,15,36,9.70
2009,04,24,15,37,9.70
2009,04,24,15,38,9.70
2009,04,24,15,39,9.70
2009,04,24,15,40,9.80
2009,04,24,15,41,9.80
2009,04,24,15,42,9.80
2009,04,24,15,43,9.70
2009,04,24,15,44,9.70
2009,04,24,15,45,9.70
2009,04,24,15,46,9.70
2009,04,24,15,47,9.70
2009,04,24,15,48,9.80
2009,04,24,15,49,9.90
2009,04,24,15,50,9.90
2009,04,24,15,51,9.90
2009,04,24,15,52,10.00
2009,04,24,15,53,10.00
2009,04,24,15,54,10.10
2009,04,24,15,55,10.10
2009,04,24,15,56,10.10
2009,04,24,15,57,10.10
2009,04,24,15,58,10.20
2009,04,24,15,59,10.30
2009,04,24,16,00,10.30
2009,04,24,16,01,10.40
2009,04,24,16,02,10.40
2009,04,24,16,03,10.50
2009,04,24,16,04,10.50
2009,04,24,16,05,10.50
2009,04,24,16,06,10.60
2009,04,24,16,07,10.70
2009,04,24,16,08,10.70
2009,04,24,16,09,10.70
2009,04,24,16,10,10.70
2009,04,24,16,11,10.80
2009,04,24,16,12,10.90
2009,04,24,16,13,10.90
2009,04,24,16,14,10.90
2009,04,24,16,15,10.90
2009,04,24,16,16,10.90
2009,04,24,16,17,10.90
2009,04,24,16,18,10.90
2009,04,24,16,19,10.80
2009,04,24,16,20,10.80
2009,04,24,16,21,10.80
2009,04,24,16,22,10.90
2009,04,24,16,23,10.90
2009,04,24,16,24,11.00
2009,04,24,16,25,11.00
2009,04,24,16,26,11.20
2009,04,24,16,27,11.20
2009,04,24,16,28,11.10
2009,04,24,16,29,11.10
2009,04,24,16,30,11.10
2009,04,24,16,31,11.20
2009,04,24,16,32,11.20
2009,04,24,16,33,11.20
2009,04,24,16,34,11.30
2009,04,24,16,35,11.30
2009,04,24,16,36,11.40
2009,04,24,16,37,11.50
2009,04,24,16,38,11.50
2009,04,24,16,39,11.60
2009,04,24,16,40,11.60
2009,04,24,16,41,11.70
2009,04,24,16,42,11.80
2009,04,24,16,43,11.80
2009,04,24,16,44,11.80
2009,04,24,16,45,11.90
2009,04,24,16,46,11.90
2009,04,24,16,47,11.90
2009,04,24,16,48,12.00
2009,04,24,16,49,12.00
2009,04,24,16,50,12.10
2009,04,24,16,51,12.10
2009,04,24,16,52,12.20
2009,04,24,16,53,12.20
2009,04,24,16,54,12.30
2009,04,24,16,55,12.30
2009,04,24,16,56,12.40
2009,04,24,16,57,12.40
2009,04,24,16,58,12.50
2009,04,24,16,59,12.50
2009,04,24,17,00,12.60
2009,04,24,17,01,12.60
2009,04,24,17,02,12.60
2009,04,24,17,03,12.50
2009,04,24,17,04,12.50
2009,04,24,17,05,12.40
2009,04,24,17,06,12.30
2009,04,24,17,07,12.30
2009,04,24,17,08,12.30
2009,04,24,17,09,12.30
2009,04,24,17,10,12.30
2009,04,24,17,11,12.20
2009,04,24,17,12,12.00
2009,04,24,17,13,11.90
2009,04,24,17,14,11.70
2009,04,24,17,15,11.60
2009,04,24,17,16,11.60
2009,04,24,17,17,11.60
2009,04,24,17,18,11.60
2009,04,24,17,19,11.60
2009,04,24,17,20,11.60
2009,04,24,17,21,11.60
2009,04,24,17,22,11.60
2009,04,24,17,23,11.70
2009,04,24,17,24,11.70
2009,04,24,17,25,11.70
2009,04,24,17,26,11.70
2009,04,24,17,27,11.80
2009,04,24,17,28,11.80
2009,04,24,17,29,11.80
2009,04,24,17,30,11.80
2009,04,24,17,31,11.90
2009,04,24,17,32,11.90
2009,04,24,17,33,11.90
2009,04,24,17,34,12.00
2009,04,24,17,35,12.00
2009,04,24,17,36,12.10
2009,04,24,17,37,12.10
2009,04,24,17,38,12.10
2009,04,24,17,39,12.10
2009,04,24,17,40,12.10
2009,04,24,17,41,12.10
2009,04,24,17,42,12.10
2009,04,24,17,43,12.10
2009,04,24,17,44,12.10
2009,04,24,17,45,12.10
2009,04,24,17,46,12.10
2009,04,24,17,47,12.10
2009,04,24,17,48,12.10
2009,04,24,17,49,12.10
2009,04,24,17,50,12.10
2009,04,24,17,51,12.10
2009,04,24,17,52,12.10
2009,04,24,17,53,12.10
2009,04,24,17,54,12.10
2009,04,24,17,55,12.00
2009,04,24,17,56,12.00
2009,04,24,17,57,12.00
2009,04,24,17,58,12.00
2009,04,24,17,59,12.00